Stations météo

Publicité
Aeroport de Lannion, France (7118): Température de l'air & dewpoint: 30.06.2020 05:00:00 - 06.07.2020 05:00:00 (CEST)Aeroport de Lannion, France (7118): Vitesse du vent & gusts: 30.06.2020 05:00:00 - 06.07.2020 05:00:00 (CEST)Aeroport de Lannion, France (7118): Direction du vent: 30.06.2020 05:00:00 - 06.07.2020 05:00:00 (CEST)Aeroport de Lannion, France (7118): reduced air pressure: 30.06.2020 05:00:00 - 06.07.2020 05:00:00 (CEST)Aeroport de Lannion, France (7118): visibility: 30.06.2020 05:00:00 - 06.07.2020 05:00:00 (CEST)Aeroport de Lannion, France (7118): Quantités de précipitations: 30.06.2020 05:00:00 - 06.07.2020 05:00:00 (CEST)
Date & Time tt [°C] td [°C] ff [km/h] ff [knt] fx [km/h] fx [knt] dd ppp [hPa] vv [km] rr [mm]
06.07.2020 05:00:00 13,2 9,6 24 13 42 23 WNW 1023,8 18 0,0
06.07.2020 04:00:00 13,2 9,8 22 12 39 21 W 1023,9 18 0,0
06.07.2020 03:00:00 13,3 9,9 23 13 41 22 W 1024,1 16 0,0
06.07.2020 02:00:00 13,7 10,3 19 11 34 18 W 1023,9 14 0,0
06.07.2020 01:00:00 13,5 10,7 21 11 34 18 W 1023,9 17 0,0
06.07.2020 00:00:00 13,4 10,6 22 12 37 20 W 1023,7 19 0,0
05.07.2020 23:00:00 13,1 10,3 21 11 34 18 W 1023,5 20 0,0
05.07.2020 22:00:00 13,7 10,1 23 12 39 21 W 1023,1 20 0,0
05.07.2020 21:00:00 15,0 11,0 26 14 45 24 W 1022,7 19 0,0
05.07.2020 20:00:00 15,4 10,6 30 16 44 24 W 1022,5 13 0,0
05.07.2020 19:00:00 16,3 11,7 34 19 50 27 W 1022,2 9 0,0
05.07.2020 18:00:00 17,3 10,9 28 15 48 26 W 1021,9 9 0,0
05.07.2020 17:00:00 17,2 11,2 35 19 48 26 W 1021,7 8 0,0
05.07.2020 16:00:00 16,6 12,5 30 16 44 24 W 1021,6 8 0,0
05.07.2020 15:00:00 16,2 14,2 24 13 42 23 W 1021,3 7 0,0
05.07.2020 14:00:00 16,6 14,8 27 15 43 23 WSW 1020,8 6 0,0
05.07.2020 13:00:00 15,6 15,0 26 14 44 24 W 1020,6 6 0,0
05.07.2020 12:00:00 16,1 15,5 28 15 44 24 W 1020,0 2,0 0,0
05.07.2020 11:00:00 16,6 16,0 29 15 49 26 WSW 1019,7 11 0,2
05.07.2020 10:00:00 16,4 15,9 24 13 41 22 SW 1019,3 3,0 0,2
05.07.2020 09:00:00 16,1 15,6 21 11 34 19 SW 1018,9 2,9 0,2
05.07.2020 08:00:00 15,9 15,4 20 11 38 20 SW 1018,5 7 0,0
05.07.2020 07:00:00 15,7 15,1 24 13 44 24 SW 1018,5 8 0,0
05.07.2020 06:00:00 15,6 15,0 26 14 42 23 WSW 1018,6 3,8 0,0
05.07.2020 05:00:00 15,7 15,1 25 14 47 26 SW 1018,5 3,9 0,0
05.07.2020 04:00:00 16,0 15,2 29 16 48 26 SW 1018,8 15 0,0
05.07.2020 03:00:00 16,1 15,3 29 16 48 26 SW 1018,8 14 0,0
05.07.2020 02:00:00 16,2 15,6 26 14 39 21 SW 1019,1 17 0,0
05.07.2020 01:00:00 16,2 15,6 24 13 41 22 SW 1019,5 16 0,0
05.07.2020 00:00:00 16,1 15,3 23 12 42 23 SW 1019,5 17 0,0
04.07.2020 23:00:00 16,4 15,8 22 12 37 20 SW 1019,3 9 0,0
04.07.2020 22:00:00 16,6 16,0 21 11 34 18 SW 1019,0 4,9 0,2
04.07.2020 21:00:00 16,8 16,2 20 11 32 17 SW 1018,8 3,9 0,0
04.07.2020 20:00:00 17,0 16,4 18 10 38 21 SW 1018,9 3,1 0,2
04.07.2020 19:00:00 17,2 16,4 21 11 37 20 WSW 1018,9 2,7 0,2
04.07.2020 18:00:00 17,6 16,5 24 13 42 23 WSW 1018,8 9 0,2
04.07.2020 17:00:00 18,5 16,7 24 13 44 24 SW 1018,5 20 0,0
04.07.2020 16:00:00 19,0 17,1 27 14 50 27 SW 1018,6 17 0,0
04.07.2020 15:00:00 19,6 17,2 31 17 52 28 SW 1018,5 20 0,0
04.07.2020 14:00:00 19,2 17,2 31 17 48 26 SW 1018,5 20 0,0
04.07.2020 13:00:00 19,0 16,8 29 16 49 26 SW 1018,5 48 0,0
04.07.2020 12:00:00 18,8 17,1 30 16 51 27 SW 1018,1 60 0,0
04.07.2020 11:00:00 17,5 16,5 25 14 39 21 SW 1018,0 10 0,0
04.07.2020 10:00:00 17,1 16,3 23 12 39 21 SW 1018,2 6 0,4
04.07.2020 09:00:00 16,9 16,1 23 12 40 22 SW 1018,1 6 0,0
04.07.2020 08:00:00 16,9 15,8 23 12 46 25 SSW 1017,8 50 0,0
04.07.2020 07:00:00 16,3 15,3 25 13 39 21 SSW 1017,8 9 0,0
04.07.2020 06:00:00 16,1 15,0 24 13 39 21 SSW 1017,8 13 0,0
04.07.2020 05:00:00 16,3 14,7 24 13 43 23 SW 1017,9 19 0,0
04.07.2020 04:00:00 16,3 14,0 27 14 45 25 SSW 1018,5 60 0,0
04.07.2020 03:00:00 16,1 13,6 27 15 46 25 SSW 1019,0 53 0,0
04.07.2020 02:00:00 16,0 13,3 22 12 41 22 SW 1019,8 36 0,0
04.07.2020 01:00:00 15,8 12,9 23 12 43 23 SSW 1019,9 35 0,0
04.07.2020 00:00:00 15,4 12,2 21 11 38 20 SSW 1020,5 38 0,0
03.07.2020 23:00:00 15,4 11,4 21 12 37 20 SSW 1020,9 44 0,0
03.07.2020 22:00:00 15,4 10,8 18 10 43 23 SSW 1021,0 48 0,0
03.07.2020 21:00:00 16,2 10,7 27 15 44 24 SSW 1021,3 47 0,0
03.07.2020 20:00:00 17,1 10,2 28 15 48 26 SSW 1021,2 21 0,0
03.07.2020 19:00:00 18,7 11,5 26 14 44 24 SW 1021,4 22 0,0
03.07.2020 18:00:00 18,8 11,1 27 14 46 25 SW 1021,7 22 0,0
03.07.2020 17:00:00 18,2 10,6 24 13 46 25 SSW 1022,0 27 0,0
03.07.2020 16:00:00 19,1 11,1 29 16 48 26 SSW 1022,2 20 0,0
03.07.2020 15:00:00 19,0 11,1 28 15 43 23 SW 1022,3 20 0,0
03.07.2020 14:00:00 17,2 13,3 15 8 29 16 WSW 1022,6 26 0,0
03.07.2020 13:00:00 17,0 13,1 20 11 34 19 W 1022,8 46 0,0
03.07.2020 12:00:00 16,8 12,7 18 10 34 18 SW 1022,8 34 0,0
03.07.2020 11:00:00 16,6 12,7 19 11 34 19 SW 1022,6 23 0,0
03.07.2020 10:00:00 16,4 12,9 15 8 27 14 SW 1022,5 20 0,0
03.07.2020 09:00:00 14,5 12,2 17 9 25 13 SW 1022,6 20 0,0
03.07.2020 08:00:00 13,0 12,1 9 5 16 9 SW 1022,6 18 0,0
03.07.2020 07:00:00 11,5 10,9 9 5 15 8 SSW 1022,9 17 0,2
03.07.2020 06:00:00 11,1 10,3 8 4 17 9 SSW 1022,5 17 0,0
03.07.2020 05:00:00 11,6 10,8 11 6 17 9 SW 1022,1 17 0,0
03.07.2020 04:00:00 11,6 10,8 10 6 18 10 SW 1022,0 16 0,0
03.07.2020 03:00:00 12,6 11,5 13 7 21 12 SW 1022,1 17 0,0
03.07.2020 02:00:00 13,3 11,9 13 7 22 12 SW 1022,2 20 0,0
03.07.2020 01:00:00 14,0 12,4 11 6 22 12 WSW 1022,1 28 0,0
03.07.2020 00:00:00 13,5 11,7 16 9 27 14 W 1022,1 29 0,0
02.07.2020 23:00:00 13,8 12,4 12 6 24 13 W 1021,8 22 0,0
02.07.2020 22:00:00 14,3 12,0 20 11 37 20 W 1021,2 20 0,0
02.07.2020 21:00:00 14,9 12,0 23 12 35 19 W 1020,9 26 0,0
02.07.2020 20:00:00 15,9 11,9 24 13 44 24 W 1020,4 33 0,0
02.07.2020 19:00:00 16,7 12,4 27 14 39 21 W 1019,8 22 0,0
02.07.2020 18:00:00 16,4 12,4 27 15 41 22 W 1019,5 10 0,0
02.07.2020 17:00:00 16,9 12,4 32 17 42 23 W 1019,4 10 0,0
02.07.2020 16:00:00 17,7 13,0 28 15 43 23 W 1019,0 10 0,0
02.07.2020 15:00:00 16,8 11,9 32 18 42 23 W 1018,8 11 0,0
02.07.2020 14:00:00 17,1 13,4 25 14 42 23 W 1018,4 12 0,0
02.07.2020 13:00:00 16,7 12,2 29 16 45 24 W 1017,8 12 0,0
02.07.2020 12:00:00 16,5 12,6 29 15 40 21 W 1017,2 13 0,0
02.07.2020 11:00:00 15,9 11,9 25 14 36 20 W 1016,7 14 0,0
02.07.2020 10:00:00 15,3 12,8 20 11 34 19 WSW 1016,2 20 0,0
02.07.2020 09:00:00 14,4 12,9 16 9 31 17 WSW 1015,9 18 0,0
02.07.2020 08:00:00 13,6 12,5 16 9 24 13 SW 1015,5 23 0,0
02.07.2020 07:00:00 12,8 11,9 11 6 21 11 SW 1015,2 17 0,0
02.07.2020 06:00:00 13,0 12,1 11 6 28 15 SW 1014,8 15 0,0
02.07.2020 05:00:00 13,3 12,4 16 9 27 14 WSW 1014,6 15 0,0
02.07.2020 04:00:00 13,0 12,1 18 10 26 14 SW 1014,7 19 0,0
02.07.2020 03:00:00 12,5 11,6 14 8 24 13 SW 1014,6 17 0,0
02.07.2020 02:00:00 12,7 11,6 15 8 25 13 SW 1014,5 20 0,0
02.07.2020 01:00:00 13,0 11,6 17 9 27 14 WSW 1014,4 25 0,0
02.07.2020 00:00:00 13,2 11,4 14 7 31 17 WSW 1014,1 28 0,0
01.07.2020 23:00:00 13,2 11,8 21 12 36 19 W 1013,9 26 0,0
01.07.2020 22:00:00 14,1 13,0 19 11 32 17 W 1013,1 16 0,0
01.07.2020 21:00:00 14,3 13,2 19 10 28 15 W 1012,5 20 0,2
01.07.2020 20:00:00 15,1 14,1 16 8 27 14 W 1012,2 14 0,6
01.07.2020 19:00:00 15,4 14,1 19 11 30 16 W 1012,0 7 0,2
01.07.2020 18:00:00 15,0 13,7 21 11 35 19 W 1011,9 12 0,2
01.07.2020 17:00:00 15,8 14,2 14 8 26 14 W 1011,5 20 0,4
01.07.2020 16:00:00 15,8 14,3 14 7 40 21 W 1011,2 35 0,4
01.07.2020 15:00:00 17,4 15,2 10 5 22 12 WSW 1010,8 34 0,0
01.07.2020 14:00:00 17,9 14,6 12 6 23 12 WNW 1010,5 47 0,0
01.07.2020 13:00:00 17,6 13,7 15 8 26 14 WSW 1010,3 45 0,0
01.07.2020 12:00:00 16,4 12,9 17 9 28 15 W 1010,1 43 0,0
01.07.2020 11:00:00 16,7 14,0 19 10 34 18 SW 1010,0 59 0,0
01.07.2020 10:00:00 15,4 13,8 16 9 30 16 SW 1010,1 36 0,2
01.07.2020 09:00:00 14,7 12,9 21 11 31 17 WSW 1009,9 4,1 0,0
01.07.2020 08:00:00 14,6 13,0 11 6 26 14 SSW 1009,4 36 0,0
01.07.2020 07:00:00 14,3 13,2 15 8 27 14 SW 1009,1 26 0,0
01.07.2020 06:00:00 14,4 13,6 14 8 26 14 SW 1009,0 29 0,0
01.07.2020 05:00:00 14,3 13,7 18 10 41 22 WSW 1009,1 11 0,0
01.07.2020 04:00:00 14,7 14,2 17 9 31 17 W 1008,9 5 0,4
01.07.2020 03:00:00 14,6 14,1 13 7 22 12 W 1009,0 3,7 1,8
01.07.2020 02:00:00 14,6 14,0 14 8 24 13 W 1009,4 2,5 2,8
01.07.2020 01:00:00 17,2 16,6 14 7 27 14 SW 1009,4 2,2 0,6
01.07.2020 00:00:00 17,3 16,5 13 7 23 12 SSW 1009,5 4,4 0,0
30.06.2020 23:00:00 17,8 16,3 16 9 29 16 SSW 1009,5 20 0,2
30.06.2020 22:00:00 17,9 16,4 18 10 33 18 SSW 1009,6 59 0,0
30.06.2020 21:00:00 17,8 16,5 16 9 35 19 SSW 1009,8 19 0,0
30.06.2020 20:00:00 17,8 16,5 19 10 40 22 SW 1010,0 11 0,4
30.06.2020 19:00:00 18,6 16,2 25 14 42 23 SW 1010,2 46 0,0
30.06.2020 18:00:00 19,1 16,3 22 12 40 21 SW 1010,5 48 0,0
30.06.2020 17:00:00 19,2 16,2 23 12 45 24 SW 1010,8 18 0,0
30.06.2020 16:00:00 20,2 16,6 25 13 45 25 SW 1011,1 26 0,0
30.06.2020 15:00:00 19,9 16,5 22 12 44 24 SW 1011,1 44 0,0
30.06.2020 14:00:00 19,2 16,4 22 12 46 25 SSW 1011,2 60 0,0
30.06.2020 13:00:00 20,6 16,8 27 15 47 26 SSW 1011,1 32 0,0
30.06.2020 12:00:00 19,1 16,5 27 14 42 23 SSW 1011,1 20 0,0
30.06.2020 11:00:00 17,7 15,1 24 13 37 20 SSW 1011,4 35 0,0
30.06.2020 10:00:00 16,8 14,6 20 11 34 19 SSW 1011,5 44 0,0
30.06.2020 09:00:00 15,4 13,9 20 11 36 20 SSW 1011,6 40 0,0
30.06.2020 08:00:00 15,0 14,0 16 9 31 17 SW 1011,7 38 0,0
30.06.2020 07:00:00 15,2 14,2 16 8 29 15 SW 1011,8 20 0,0
30.06.2020 06:00:00 15,1 14,3 17 9 31 17 SW 1011,6 18 0,0
30.06.2020 05:00:00 15,2 14,4 12 6 24 13 SSW 1011,9 3,0 0,0

tt = Température de l'air
td = dewpoint
ff = Vitesse du vent
fx = gusts
dd = Direction du vent
ppp = reduced air pressure
vv = visibility
rr = Quantités de précipitations

stations d'obs. à proximité